Regional Weather Roundup
Issued by NWS

Home | Current Version | Previous Version | Graphics & Text | Print | Product List | Glossary On
Versions: 1 2 3 4 5 6 7 8 9 10 11 12 13 14 15 16 17 18 19 20 21 22 23 24 25 26 27
000
ASUS45 KCYS 190510
RWRWY

WYOMING REGIONAL WEATHER ROUNDUP
NATIONAL WEATHER SERVICE CHEYENNE WY
1000 PM MST SUN FEB 18 2018

NOTE:  "FAIR" INDICATES FEW OR NO CLOUDS BELOW 12,000 FEET
WITH NO SIGNIFICANT WEATHER AND/OR OBSTRUCTIONS TO VISIBILITY.

WYZ001-190600-
YELLOWSTONE NATIONAL PARK

CITY           SKY/WX    TMP DP  RH WIND       PRES   REMARKS
LK YELLOWSTONE   N/A      8   6  92 CALM      29.44F
W YELLOWSTONE  NOT AVBL

$$
WYZ002>013-054>058-071-098>099-190600-
NORTHERN WYOMING

CITY           SKY/WX    TMP DP  RH WIND       PRES   REMARKS
JACKSON        MOCLDY    18  12  77 W5        29.47S WCI  11
CODY           LGT SNOW   0  -6  76 N7        29.79F WCI -13
GREYBULL       LGT SNOW   5   2  87 W7        29.84R FOG     WCI  -7
WORLAND        CLOUDY     6   0  76 NW9       29.83F WCI  -8
SHERIDAN       CLOUDY     4   0  83 NW7       29.94S WCI  -8
BUFFALO        CLOUDY     2  -2  83 N13       29.83F WCI -15
GILLETTE       LGT SNOW   2  -2  83 N14       29.87R FOG     WCI -16
HULETT         LGT SNOW   5   0  78 MISG      29.89S
NEWCASTLE      LGT SNOW  10   7  85 MISG      29.82R

$$
WYZ014>020-022>026-101>103-190600-
CENTRAL WYOMING

CITY           SKY/WX    TMP DP  RH WIND       PRES   REMARKS
BIG PINEY      CLOUDY    18  17  96 SW6       29.50R WCI  10
PINEDALE       CLOUDY    21  14  73 S12       29.49R WCI   9
DUBOIS         NOT AVBL
LANDER         LGT SNOW   6   3  87 E6        29.68R VSB 3/4 WCI  -4
RIVERTON       LGT SNOW   5   0  79 E12       29.68F WCI -11
CASPER         CLOUDY     1  -2  87 NE10      29.78R FOG     WCI -15
DOUGLAS        LGT SNOW   4  -1  80 N7        29.76F WCI  -8

$$
WYZ021-027>030-104>119-190600-
SOUTHERN WYOMING

CITY           SKY/WX    TMP DP  RH WIND       PRES   REMARKS
EVANSTON       LGT SNOW  21  19  92 NE7       29.47F VSB 3/4 WCI  12
FORT BRIDGER   LGT SNOW  21  21 100 NE7       29.52F VSB 1   WCI  13
ROCK SPRINGS   LGT SNOW  23  19  85 N5        29.49F FOG     WCI  17
DIXON          LGT SNOW  29  25  85 SW3       29.50S
RAWLINS        FOG       10   6  84 N7        29.53S VSB 3/4 WCI  -1
SARATOGA       LGT SNOW  18  18 100 NW12      29.49S WCI   5
LARAMIE        CLOUDY    19  15  84 VRB7      29.45R WCI  10
CHEYENNE       LGT SNOW  11  10  96 N13G25    29.60R FOG     WCI  -4
TORRINGTON     LGT SNOW  11   8  88 N16       29.75F FOG     WCI  -6
PINE BLUFFS    CLOUDY    14  12  92 N15G23    29.66R WCI  -1

$$




USA.gov is the U.S. government's official web portal to all federal, state and local government web resources and services.